Content
SEND FEEDBACK

Daily
Averages
Monthly
Summary
United States of America

RED BLUFF, CALIFORNIA


Home > North America > United States > California
Elevation: 344 feet     Latitude: 40 09N     Longitude: 122 15W

WEATHER
 
SELECT A DAY
Number of Records: 182,929;   Date Range: 1/1/95 - 7/26/14
 
SHARE

PRINT THIS DATA

[ ← Previous Day ]
WEATHER ALMANAC - SEPTEMBER 25, 2013
[ Next Day → ]
[ °C ]   °F
Weather ElementAverageHighLow
Temperature62.2 °F73 °F (3:54 pm)54 °F (5:54 am)
Dewpoint36.2 °F42.1 °F (9:54 pm)28.9 °F (3:54 pm)
Humidity39.8 %60 % (9:54 pm)20 % (3:54 pm)
Barometer29.87 in29.91 in (7:54 am)29.83 in (2:54 pm)
Wind Speed9.1 mph23 mph (3:54 pm)
Wind Gust36.8 mph (4:09 pm)
Weather ElementAverage
Visibility10 mi
Wind DirectionSW (221.3 °)

Weather ElementTotal
Precipitation---
Heating Degree Days1.5 (Base 65)
Growing Degree Days13.5 (Base 50)
Averaged from 24 records on September 25, 2013
WEATHER CONDITIONS BREAKOUT
WIND DIRECTION BREAKOUT
WEATHER BY HOUR - SEPTEMBER 25, 2013
[ °C ]   °F
Local TimeTemperatureDewpointHumidityBarometerVisibilityWind DirectionWind SpeedGust SpeedPrecipitationEventsConditions
1:54 AM61.0 °F39.0 °F44 %29.86 in10.0 miWNW (300°)11.5 mph23.0 mphClear
2:54 AM59.0 °F37.9 °F46 %29.86 in10.0 miWNW (290°)10.4 mph18.4 mphClear
3:54 AM60.1 °F36.0 °F41 %29.86 in10.0 miNW (310°)9.2 mphClear
4:54 AM57.9 °F36.0 °F44 %29.87 in10.0 miNNE (30°)4.6 mphClear
5:54 AM54.0 °F37.9 °F55 %29.88 in10.0 miNNE (20°)5.8 mphClear
6:54 AM54.0 °F37.9 °F55 %29.89 in10.0 miNNE (30°)4.6 mphClear
7:54 AM57.0 °F39.0 °F51 %29.91 in10.0 miNNE (20°)5.8 mphOvercast
8:54 AM60.1 °F39.0 °F46 %29.91 in10.0 miNorth (10°)5.8 mphClear
9:54 AM64.0 °F37.0 °F37 %29.91 in10.0 miNorth (350°)11.5 mphClear
10:54 AM66.0 °F35.1 °F32 %29.91 in10.0 miNorth (350°)10.4 mphClear
11:54 AM66.9 °F33.1 °F28 %29.89 in10.0 miNW (310°)8.1 mphClear
12:54 PM69.1 °F32.0 °F25 %29.88 in10.0 miVariable4.6 mphClear
1:54 PM69.1 °F30.0 °F23 %29.86 in10.0 miCalmClear
2:54 PM70.0 °F30.0 °F23 %29.83 in10.0 miSouth (190°)5.8 mphScattered Clouds
3:54 PM73.0 °F28.9 °F20 %29.83 in10.0 miNNW (330°)23.0 mph32.2 mphMostly Cloudy
4:09 PM69.8 °F35.6 °F28 %29.85 in10.0 miNorth (350°)18.4 mph36.8 mphMostly Cloudy
4:54 PM64.9 °F37.0 °F36 %29.85 in10.0 miNNE (20°)17.3 mph23.0 mphOvercast
5:54 PM66.9 °F33.1 °F28 %29.85 in10.0 miNorth (350°)8.1 mphClear
6:54 PM64.0 °F35.1 °F34 %29.85 in10.0 miNNW (340°)6.9 mphClear
7:54 PM61.0 °F36.0 °F39 %29.86 in10.0 miNorth (350°)8.1 mphClear
8:54 PM59.0 °F41.0 °F51 %29.87 in10.0 miNorth (350°)6.9 mphClear
9:54 PM55.9 °F42.1 °F60 %29.88 in10.0 miNNW (340°)9.2 mphClear
10:54 PM55.0 °F41.0 °F59 %29.89 in10.0 miNNW (340°)10.4 mphClear
11:54 PM55.9 °F37.9 °F51 %29.90 in10.0 miNNW (330°)11.5 mphClear
Hourly data recorded from KRBL, located miles away from Red Bluff, California







STORIES FROM OUR PARTNERS